User: anonymous   Login
Location: Unspecified
(0.0000°N, 0.0000°E)
Time: 12:52:45
(UTC+00:00)
Language:

SLDCOM 1 - Orbit

View from above orbital plane
View from above orbital plane
View from above satellite
View from above satellite

Ground track
Ground track

The orbit data is extracted from the following two-line orbital elements,

1 20641U 90050A   17203.84828536 0.00000000  00000-0  00000-0 0    07
2 20641  63.4944 120.4997 4035186 264.9751  49.0377  6.02574500    07
Epoch (UTC): 22 July 2017 20:21:31
Eccentricity: 0.4035186
inclination: 63.4944°
perigee height: 1231 km
apogee height: 11525 km
right ascension of ascending node: 120.4997°
argument of perigee: 264.9751°
revolutions per day: 6.02574500
mean anomaly at epoch: 49.0377°
orbit number at epoch: 0

The dashed part of the orbit path shows where the satellite is in the earth's shadow,  

DLR